Location: Aldenham
(51.6667°N, 0.3500°W)
Time: 07:03:30
(UTC+00:00)

Cosmos 1943 Rocket - Pass Details

Date: 18 November 2025
Orbit: 812 x 841 km, 71.0° (Epoch: 16 December)

Event Time Altitude Azimuth Distance (km) Brightness Sun altitude
Rises 19:06:24 0° 239° (WSW) 3,374 6.2 -27.4°
Reaches altitude 10° 19:09:03 10° 248° (WSW) 2,439 5.4 -27.8°
Maximum altitude 19:14:09 35° 314° (NW) 1,311 3.5 -28.6°
Enters shadow 19:16:48 23° 2° (N) 1,690 3.7 -29.0°
